Time,TemperatureF,DewpointF,PressureIn,WindDirection,WindDirectionDegrees,WindSpeedMPH,WindSpeedGustMPH,Humidity,HourlyPrecipIn,Conditions,Clouds,dailyrainin,SoftwareType,DateUTC
2013-06-20 00:02:00,52.0,45.0,30.18,ESE,120,0.0,1.0,76,0.00,,,0.00,,2013-06-20 04:02:00,
2013-06-20 00:11:00,52.0,45.0,30.18,ESE,120,0.0,1.0,77,0.00,,,0.00,,2013-06-20 04:11:00,
2013-06-20 00:23:00,51.0,44.0,30.19,ESE,120,0.0,1.0,77,0.00,,,0.00,,2013-06-20 04:23:00,
2013-06-20 00:34:00,51.0,44.0,30.19,ESE,120,0.0,1.0,78,0.00,,,0.00,,2013-06-20 04:34:00,
2013-06-20 00:43:00,51.0,44.0,30.19,ESE,120,0.0,1.0,78,0.00,,,0.00,,2013-06-20 04:43:00,
2013-06-20 00:54:00,51.0,44.0,30.19,ESE,120,0.0,1.0,78,0.00,,,0.00,,2013-06-20 04:54:00,
2013-06-20 01:02:00,51.0,44.0,30.19,ESE,120,0.0,1.0,78,0.00,,,0.00,,2013-06-20 05:02:00,
2013-06-20 01:12:00,51.0,44.0,30.19,ESE,120,0.0,1.0,78,0.00,,,0.00,,2013-06-20 05:12:00,
2013-06-20 01:22:00,50.0,44.0,30.19,ESE,120,0.0,1.0,79,0.00,,,0.00,,2013-06-20 05:22:00,
2013-06-20 01:33:00,50.0,44.0,30.19,ESE,120,0.0,1.0,79,0.00,,,0.00,,2013-06-20 05:33:00,
2013-06-20 01:44:00,50.0,44.0,30.19,ESE,120,0.0,1.0,79,0.00,,,0.00,,2013-06-20 05:44:00,
2013-06-20 01:53:00,50.0,44.0,30.19,ESE,120,0.0,1.0,79,0.00,,,0.00,,2013-06-20 05:53:00,
2013-06-20 02:02:00,50.0,44.0,30.20,ESE,120,0.0,1.0,79,0.00,,,0.00,,2013-06-20 06:02:00,
2013-06-20 02:11:00,50.0,44.0,30.20,ESE,120,0.0,1.0,79,0.00,,,0.00,,2013-06-20 06:11:00,
2013-06-20 02:22:00,50.0,44.0,30.20,ESE,120,0.0,1.0,79,0.00,,,0.00,,2013-06-20 06:22:00,
2013-06-20 02:34:00,50.0,44.0,30.20,ESE,120,0.0,1.0,80,0.00,,,0.00,,2013-06-20 06:34:00,
2013-06-20 02:43:00,50.0,44.0,30.20,ESE,120,0.0,1.0,80,0.00,,,0.00,,2013-06-20 06:43:00,
2013-06-20 02:53:00,50.0,44.0,30.20,ESE,120,0.0,1.0,80,0.00,,,0.00,,2013-06-20 06:53:00,
2013-06-20 03:01:00,49.0,43.0,30.21,ESE,120,0.0,1.0,81,0.00,,,0.00,,2013-06-20 07:01:00,
2013-06-20 03:12:00,49.0,43.0,30.21,ESE,120,0.0,1.0,81,0.00,,,0.00,,2013-06-20 07:12:00,
2013-06-20 03:23:00,49.0,43.0,30.21,ESE,115,0.0,1.0,81,0.00,,,0.00,,2013-06-20 07:23:00,
2013-06-20 03:34:00,50.0,44.0,30.20,ESE,116,0.0,1.0,81,0.00,,,0.00,,2013-06-20 07:34:00,
2013-06-20 03:44:00,50.0,44.0,30.20,ESE,116,0.0,1.0,81,0.00,,,0.00,,2013-06-20 07:44:00,
2013-06-20 03:53:00,49.0,44.0,30.21,ESE,115,0.0,0.0,83,0.00,,,0.00,,2013-06-20 07:53:00,
2013-06-20 04:02:00,48.0,43.0,30.21,ESE,116,0.0,1.0,84,0.00,,,0.00,,2013-06-20 08:02:00,
2013-06-20 04:11:00,48.0,43.0,30.21,ESE,116,0.0,1.0,84,0.00,,,0.00,,2013-06-20 08:11:00,
2013-06-20 04:22:00,48.0,43.0,30.21,ESE,116,0.0,1.0,84,0.00,,,0.00,,2013-06-20 08:22:00,
2013-06-20 04:34:00,48.0,43.0,30.21,ESE,116,0.0,1.0,84,0.00,,,0.00,,2013-06-20 08:34:00,
2013-06-20 04:43:00,48.0,43.0,30.22,ESE,116,0.0,1.0,84,0.00,,,0.00,,2013-06-20 08:43:00,
2013-06-20 04:53:00,48.0,43.0,30.22,ESE,116,0.0,1.0,84,0.00,,,0.00,,2013-06-20 08:53:00,
2013-06-20 05:02:00,48.0,43.0,30.22,ESE,116,0.0,1.0,84,0.00,,,0.00,,2013-06-20 09:02:00,
2013-06-20 05:12:00,48.0,43.0,30.23,ESE,116,0.0,1.0,84,0.00,,,0.00,,2013-06-20 09:12:00,
2013-06-20 05:22:00,48.0,43.0,30.23,ESE,115,0.0,1.0,84,0.00,,,0.00,,2013-06-20 09:22:00,
2013-06-20 05:33:00,47.0,43.0,30.24,ESE,116,0.0,0.0,85,0.00,,,0.00,,2013-06-20 09:33:00,
2013-06-20 05:42:00,47.0,43.0,30.24,ESE,116,0.0,0.0,85,0.00,,,0.00,,2013-06-20 09:42:00,
2013-06-20 05:52:00,47.0,43.0,30.24,ESE,115,0.0,1.0,86,0.00,,,0.00,,2013-06-20 09:52:00,
2013-06-20 06:02:00,47.0,43.0,30.24,ESE,116,0.0,0.0,87,0.00,,,0.00,,2013-06-20 10:02:00,
2013-06-20 06:11:00,47.0,43.0,30.24,ESE,116,0.0,0.0,87,0.00,,,0.00,,2013-06-20 10:11:00,
2013-06-20 06:22:00,48.0,44.0,30.25,ESE,116,0.0,0.0,86,0.00,,,0.00,,2013-06-20 10:22:00,
2013-06-20 06:34:00,48.0,44.0,30.25,ESE,116,0.0,0.0,86,0.00,,,0.00,,2013-06-20 10:34:00,
2013-06-20 06:43:00,48.0,44.0,30.26,ESE,115,0.0,1.0,85,0.00,,,0.00,,2013-06-20 10:43:00,
2013-06-20 06:53:00,49.0,45.0,30.26,ESE,116,0.0,0.0,85,0.00,,,0.00,,2013-06-20 10:53:00,
2013-06-20 07:02:00,49.0,45.0,30.26,ESE,115,0.0,0.0,86,0.00,,,0.00,,2013-06-20 11:02:00,
2013-06-20 07:12:00,49.0,45.0,30.26,ESE,115,0.0,0.0,86,0.00,,,0.00,,2013-06-20 11:12:00,
2013-06-20 07:22:00,50.0,46.0,30.27,ESE,116,0.0,0.0,85,0.00,,,0.00,,2013-06-20 11:22:00,
2013-06-20 07:34:00,50.0,46.0,30.27,ESE,116,0.0,0.0,85,0.00,,,0.00,,2013-06-20 11:34:00,
2013-06-20 07:43:00,50.0,45.0,30.27,ESE,115,0.0,0.0,84,0.00,,,0.00,,2013-06-20 11:43:00,
2013-06-20 07:53:00,51.0,46.0,30.27,ESE,116,0.0,0.0,82,0.00,,,0.00,,2013-06-20 11:53:00,
2013-06-20 08:02:00,51.0,46.0,30.27,ESE,116,0.0,0.0,82,0.00,,,0.00,,2013-06-20 12:02:00,
2013-06-20 08:12:00,52.0,45.0,30.28,ESE,116,0.0,1.0,77,0.00,,,0.00,,2013-06-20 12:12:00,
2013-06-20 08:22:00,53.0,46.0,30.28,ESE,115,0.0,0.0,77,0.00,,,0.00,,2013-06-20 12:22:00,
2013-06-20 08:34:00,53.0,46.0,30.28,ESE,115,0.0,0.0,77,0.00,,,0.00,,2013-06-20 12:34:00,
2013-06-20 08:43:00,54.0,48.0,30.28,ESE,116,0.0,1.0,80,0.00,,,0.00,,2013-06-20 12:43:00,
2013-06-20 08:53:00,55.0,49.0,30.28,ESE,116,0.0,1.0,80,0.00,,,0.00,,2013-06-20 12:53:00,
2013-06-20 09:02:00,55.0,49.0,30.28,ESE,116,0.0,1.0,80,0.00,,,0.00,,2013-06-20 13:02:00,
2013-06-20 09:11:00,56.0,48.0,30.28,SSW,205,0.0,1.0,75,0.00,,,0.00,,2013-06-20 13:11:00,
2013-06-20 09:22:00,58.0,49.0,30.28,West,271,0.0,1.0,71,0.00,,,0.00,,2013-06-20 13:22:00,
2013-06-20 09:33:00,58.0,49.0,30.28,West,271,0.0,1.0,71,0.00,,,0.00,,2013-06-20 13:33:00,
2013-06-20 09:42:00,58.0,48.0,30.27,West,278,0.0,2.0,69,0.00,,,0.00,,2013-06-20 13:42:00,
2013-06-20 09:53:00,60.0,49.0,30.27,WSW,238,0.0,1.0,66,0.00,,,0.00,,2013-06-20 13:53:00,
2013-06-20 10:02:00,61.0,47.0,30.27,SSW,208,0.0,2.0,60,0.00,,,0.00,,2013-06-20 14:02:00,
2013-06-20 10:11:00,61.0,47.0,30.27,SSW,208,0.0,2.0,60,0.00,,,0.00,,2013-06-20 14:11:00,
2013-06-20 10:22:00,62.0,48.0,30.27,NNW,341,0.0,3.0,60,0.00,,,0.00,,2013-06-20 14:22:00,
2013-06-20 10:32:00,62.0,48.0,30.27,NNW,341,0.0,3.0,60,0.00,,,0.00,,2013-06-20 14:32:00,
2013-06-20 10:42:00,62.0,47.0,30.27,NW,309,1.0,4.0,57,0.00,,,0.00,,2013-06-20 14:42:00,
2013-06-20 10:53:00,63.0,46.0,30.26,WNW,290,2.0,4.0,53,0.00,,,0.00,,2013-06-20 14:53:00,
2013-06-20 11:02:00,63.0,46.0,30.26,WNW,290,2.0,4.0,53,0.00,,,0.00,,2013-06-20 15:02:00,
2013-06-20 11:11:00,64.0,46.0,30.27,WNW,284,1.0,4.0,52,0.00,,,0.00,,2013-06-20 15:11:00,
2013-06-20 11:22:00,65.0,48.0,30.27,WSW,242,1.0,4.0,55,0.00,,,0.00,,2013-06-20 15:22:00,
2013-06-20 11:33:00,65.0,48.0,30.27,WSW,242,1.0,4.0,55,0.00,,,0.00,,2013-06-20 15:33:00,
2013-06-20 11:43:00,65.0,47.0,30.26,WNW,300,1.0,4.0,52,0.00,,,0.00,,2013-06-20 15:43:00,
2013-06-20 11:53:00,66.0,49.0,30.27,ESE,120,0.0,4.0,54,0.00,,,0.00,,2013-06-20 15:53:00,
2013-06-20 12:02:00,66.0,49.0,30.27,ESE,120,0.0,4.0,54,0.00,,,0.00,,2013-06-20 16:02:00,
2013-06-20 12:12:00,67.0,47.0,30.26,NW,315,1.0,3.0,49,0.00,,,0.00,,2013-06-20 16:12:00,
2013-06-20 12:22:00,67.0,47.0,30.26,NW,315,1.0,3.0,49,0.00,,,0.00,,2013-06-20 16:22:00,
2013-06-20 12:33:00,67.0,47.0,30.26,NW,315,1.0,3.0,49,0.00,,,0.00,,2013-06-20 16:33:00,
2013-06-20 12:43:00,68.0,48.0,30.26,WNW,295,1.0,4.0,49,0.00,,,0.00,,2013-06-20 16:43:00,
2013-06-20 12:52:00,68.0,48.0,30.26,WNW,295,1.0,4.0,49,0.00,,,0.00,,2013-06-20 16:52:00,
2013-06-20 13:02:00,68.0,48.0,30.26,NNW,335,1.0,4.0,49,0.00,,,0.00,,2013-06-20 17:02:00,
2013-06-20 13:12:00,69.0,48.0,30.25,WNW,288,1.0,4.0,48,0.00,,,0.00,,2013-06-20 17:12:00,
2013-06-20 13:22:00,70.0,49.0,30.25,NW,326,3.0,7.0,48,0.00,,,0.00,,2013-06-20 17:22:00,
2013-06-20 13:32:00,70.0,49.0,30.25,NW,326,3.0,7.0,48,0.00,,,0.00,,2013-06-20 17:32:00,
2013-06-20 13:43:00,70.0,46.0,30.25,NNW,345,3.0,6.0,43,0.00,,,0.00,,2013-06-20 17:43:00,
2013-06-20 13:53:00,70.0,46.0,30.25,NNW,345,3.0,6.0,43,0.00,,,0.00,,2013-06-20 17:53:00,
2013-06-20 14:01:00,69.0,48.0,30.24,NW,316,1.0,7.0,47,0.00,,,0.00,,2013-06-20 18:01:00,
2013-06-20 14:12:00,70.0,48.0,30.24,NNE,26,2.0,7.0,45,0.00,,,0.00,,2013-06-20 18:12:00,
2013-06-20 14:22:00,72.0,42.0,30.23,WNW,299,1.0,4.0,34,0.00,,,0.00,,2013-06-20 18:22:00,
2013-06-20 14:33:00,72.0,42.0,30.23,WNW,299,1.0,4.0,34,0.00,,,0.00,,2013-06-20 18:33:00,
2013-06-20 14:43:00,72.0,45.0,30.23,SSW,193,0.0,3.0,38,0.00,,,0.00,,2013-06-20 18:43:00,
2013-06-20 14:53:00,72.0,45.0,30.23,SSW,193,0.0,3.0,38,0.00,,,0.00,,2013-06-20 18:53:00,
2013-06-20 15:01:00,72.0,50.0,30.23,NNW,333,1.0,3.0,46,0.00,,,0.00,,2013-06-20 19:01:00,
2013-06-20 15:11:00,73.0,47.0,30.23,NW,325,1.0,3.0,39,0.00,,,0.00,,2013-06-20 19:11:00,
2013-06-20 15:22:00,72.0,47.0,30.22,North,358,2.0,4.0,41,0.00,,,0.00,,2013-06-20 19:22:00,
2013-06-20 15:34:00,72.0,47.0,30.22,North,358,2.0,4.0,41,0.00,,,0.00,,2013-06-20 19:34:00,
2013-06-20 15:43:00,72.0,49.0,30.22,WSW,255,1.0,6.0,45,0.00,,,0.00,,2013-06-20 19:43:00,
2013-06-20 15:52:00,72.0,49.0,30.22,WSW,255,1.0,6.0,45,0.00,,,0.00,,2013-06-20 19:52:00,
2013-06-20 16:02:00,73.0,49.0,30.22,West,274,0.0,5.0,42,0.00,,,0.00,,2013-06-20 20:02:00,
2013-06-20 16:11:00,74.0,49.0,30.22,SE,139,1.0,5.0,42,0.00,,,0.00,,2013-06-20 20:11:00,
2013-06-20 16:33:00,73.0,47.0,30.22,West,278,0.0,2.0,40,0.00,,,0.00,,2013-06-20 20:33:00,
2013-06-20 16:43:00,73.0,50.0,30.22,North,355,0.0,3.0,44,0.00,,,0.00,,2013-06-20 20:43:00,
2013-06-20 16:52:00,75.0,49.0,30.21,NNW,346,1.0,4.0,40,0.00,,,0.00,,2013-06-20 20:52:00,
2013-06-20 17:01:00,75.0,49.0,30.21,NNW,346,1.0,4.0,40,0.00,,,0.00,,2013-06-20 21:01:00,